Volver al catálogo

STARLINK-6186

ActivoComunicacionesVLEO
NORAD 56908·PAYLOAD·🇺🇸 United States

Lanzado Jun 12, 2023 desde Cape Canaveral Space Force Station

Loading…

Próximos Pases (próximas 24 horas)

TLE

ActualizadoSource: CelesTrak SupGP

Época: Sep 14, 2026, 20:56 UTC

1 56908C 23083AJ  26257.87270833  .00023564  00000+0  85370-3 0  2576
2 56908  43.0018  82.1848 0001018 261.3645  49.2899 15.27559123    16

Sigue STARLINK-6186 en tiempo real con AllMySat

Download on the App Store